     2.10           OBSERVATION DATA    G (GPS)             RINEX VERSION / TYPE
teqc 2002Apr3 Duncan Agnew 20050511 23:58:26UTC             PGM / RUN BY / DATE
OSX 5.3|G3|cc|OSX 5.3+|G3+                                  COMMENT
BIT 2 OF LLI FLAGS DATA COLLECTED UNDER A/S CONDITION       COMMENT
E 1223 1971                                                 MARKER NAME
6893                                                        MARKER NUMBER
Alex Espinoza Nolte Engineering                             OBSERVER / AGENCY
220136893 TRIMBLE 4800 NP 1.20 / SP 1.43                    REC # / TYPE / VERS
N/A TRM4800                                                 ANT # / TYPE
 -2318325.0000 -4839899.0000  3435295.0000                  APPROX POSITION XYZ
        2.0000        0.0000        0.0000                  ANTENNA: DELTA H/E/N
     1     1                                                WAVELENGTH FACT L1/2
     7    C1    L1    L2    P1    P2    S1    S2            # / TYPES OF OBSERV
SNR is mapped to RINEX snr flag value [1-9]                 COMMENT
L1: 3 -> 1; 8 -> 5; 40 -> 9                                 COMMENT
L2: 1 -> 1; 5 -> 5; 60 -> 9                                 COMMENT
  2004     6    29    21    22   10.0000000     GPS         TIME OF FIRST OBS
                                                            END OF HEADER
 04  6 29 21 22 10.0000000  0  5G11G14G20G22G25
  21604087.4754     -10740.73459     -7198.13557                  21604084.5434
        50.7504         38.0004
  22990212.6094      92997.41059     60127.31457                  22990210.1124
        45.2504         30.2504
  23005188.3034    -168371.89159   -114673.08757                  23005186.3474
        45.5004         29.5004
  24305085.5394      91240.39859     54759.76257                  24305083.9424
        42.7504         28.2504
  20445533.4064       6468.73059      4117.88958                  20445530.5834
        52.7504         44.5004
 04  6 29 21 22 20.0000000  0  4G11G14G20G25
  21603596.4694     -13322.74249     -9210.09247                  21603593.5534
        50.2504         38.5004
  22993536.4414     110464.42249     73737.98147                  22993534.1994
        45.7504         31.0004
  22998539.7764    -203309.27349   -141896.99047                  22998537.9404
        45.2504         30.0004
  20445676.8264       7223.08649      4705.68748                  20445674.1724
        52.7504         45.2504
 04  6 29 21 22 30.0000000  0  4G11G14G20G25
  21603088.5954     -15991.13349    -11289.35648                  21603085.5194
        51.0004         39.5004
  22996833.7704     127788.55149     87237.27247                  22996831.4374
        46.5004         31.5004
  22991865.0704    -238384.80949   -169228.57247                  22991863.6274
        45.7504         30.0004
  20445803.3874       7886.97349      5223.01648                  20445800.7904
        53.0004         44.7504
 04  6 29 21 22 40.0000000  0  4G11G14G20G25
  21602567.8374     -18724.03549    -13418.90148                  21602565.6654
        50.0004         39.5004
  23000107.3184     144991.71949    100642.32847                  23000105.1684
        45.5004         32.5004
  22985168.6054    -273576.52049   -196650.66247                  22985166.6354
        45.5004         30.5004
  20445916.4954       8482.28949      5686.89248                  20445913.6394
        52.5004         45.0004
 04  6 29 21 22 50.0000000  0  4G11G14G20G25
  21602039.9194     -21501.27049    -15582.99748                  21602037.1204
        50.7504         39.5004
  23003361.4064     162094.08649    113968.84947                  23003359.4394
        46.0004         31.7504
  22978453.4294    -308864.10249   -224147.45847                  22978450.7634
        45.7504         30.2504
  20446020.2154       9029.17249      6113.02348                  20446017.4524
        52.5004         44.7504
 04  6 29 21 23  0.0000000  0  4G11G14G20G25
  21601504.6914     -24312.65649    -17773.68447                  21601502.3974
        50.0004         38.7504
  23006598.4644     179105.71549    127224.62547                  23006597.0174
        45.0004         31.5004
  22971722.0814    -344237.42249   -251711.05947                  22971719.9844
        46.5004         30.5004
  20446117.1744       9537.73449      6509.30848                  20446114.1254
        52.5004         44.5004
 04  6 29 21 23 10.0000000  0  4G11G14G20G25
  21600964.1284     -27154.50449    -19988.11548                  21600961.7424
        50.0004         39.5004
  23009819.1004     196030.48849    140412.75447                  23009816.9774
        44.7504         29.5004
  22964975.3644    -379692.56249   -279338.43347                  22964973.3884
        46.5004         30.5004
  20446207.1914      10011.68449      6878.62248                  20446204.9284
        52.5004         44.5004
 04  6 29 21 23 20.0000000  0  4G11G14G20G25
  21600418.5084     -30020.54349    -22221.39947                  21600416.6224
        50.2504         38.2504
  23013024.4044     212874.57849    153538.01847                  23013022.6974
        43.2504         29.5004
  22958214.1704    -415223.22349   -307024.63547                  22958212.5284
        45.7504         29.5004
  20446291.9714      10457.27349      7225.83148                  20446289.5894
        52.2504         43.7504
 04  6 29 21 23 30.0000000  0  4G11G14G20G25
  21599870.1794     -32903.12149    -24467.56847                  21599867.4014
        50.2504         38.7504
  23016215.9444     229645.62949    166606.35547                  23016213.4674
        44.5004         29.2504
  22951439.6904    -450821.69149   -334763.69147                  22951438.2704
        45.7504         31.0004
  20446373.0724      10882.14549      7556.89448                  20446370.3484
        52.7504         44.7504
 04  6 29 21 23 40.0000000  0  4G11G14G20G25
  21599317.4164     -35806.09849    -26729.62647                  21599315.2334
        50.0004         39.2504
  23019392.6124     246339.84849    179614.83247                  23019390.6414
        43.0004         29.0004
  22944651.8404    -486491.73049   -362558.49047                  22944650.4724
        46.0004         30.5004
  20446449.2434      11282.39549      7868.79248                  20446446.9554
        52.2504         44.7504
 04  6 29 21 23 50.0000000  0  4G11G14G20G25
  21598762.9924     -38720.97749    -29000.97348                  21598760.4334
        50.0004         39.5004
  23022556.3324     262965.68049    192569.99847                  23022554.3854
        43.0004         29.0004
  22937851.9504    -522224.69949   -390402.36547                  22937850.4534
        45.7504         30.2504
  20446522.3314      11666.46149      8168.04848                  20446520.1614
        52.0004         45.0004
 04  6 29 21 24  0.0000000  0  4G11G14G20G25
  21598205.9504     -41649.33649    -31282.81648                  21598203.4864
        50.5004         39.5004
  23025706.5834     279521.53549    205470.66647                  23025704.7304
        43.2504         29.0004
  22931039.9754    -558022.11349   -418296.43547                  22931038.1644
        46.2504         29.0004
  20446592.1264      12032.71149      8453.44148                  20446589.8094
        52.2504         45.0004
 04  6 29 21 24 10.0000000  0  4G11G14G20G25
  21597647.2754     -44586.14549    -33571.25347                  21597644.7644
        50.0004         39.0004
  23028844.5154     296012.69149    218320.89847                  23028842.9314
        42.7504         28.0004
  22924216.9734    -593878.69549   -446236.62747                  22924214.4204
        46.0004         29.0004
  20446659.4554      12386.26249      8728.92248                  20446656.3564
        52.5004         45.2504
 04  6 29 21 24 20.0000000  0  4G11G14G20G25
  21597086.3994     -47531.96949    -35866.71347                  21597083.7264
        50.2504         39.0004
  23031970.9274     312438.38349    231120.10947                  23031968.4654
        44.5004         29.7504
  22917382.5164    -629795.15649   -474223.45547                  22917379.6864
        46.0004         28.5004
  20446723.9114      12726.45749      8994.01048                  20446721.4084
        53.2504         45.5004
 04  6 29 21 24 30.0000000  0  4G11G14G20G25
  21596525.3954     -50480.78149    -38164.51447                  21596522.7764
        50.2504         38.0004
  23035084.9134     328804.71549    243873.10047                  23035082.4104
        43.5004         27.7504
  22910537.6764    -665765.26249   -502252.10347                  22910534.6744
        46.2504         29.5004
  20446787.5954      13059.41449      9253.45748                  20446784.9354
        53.5004         44.5004
 04  6 29 21 24 40.0000000  0  4G11G14G20G25
  21595963.1754     -53434.39849    -40466.03347                  21595960.4504
        50.2504         38.5004
  23038187.5124     345109.88749    256578.40047                  23038184.9964
        44.5004         27.5004
  22903681.9304    -701790.75449   -530323.88547                  22903680.2684
        46.5004         30.0004
  20446848.8624      13383.31649      9505.83948                  20446846.4404
        53.5004         45.0004
 04  6 29 21 24 50.0000000  0  4G11G14G20G25
  21595400.5114     -56391.60549    -42770.35747                  21595397.7874
        50.5004         38.2504
  23041279.1054     361354.95749    269236.87747                  23041276.3164
        43.2504         27.2504
  22896816.5574    -737870.43749   -558437.92947                  22896814.2034
        45.7504         29.5004
  20446909.1854      13699.19949      9751.99248                  20446906.7354
        53.5004         45.0004
 04  6 29 21 25  0.0000000  0  4G11G14G20G25
  21594837.2914     -59350.14149    -45075.72647                  21594834.7674
        50.5004         38.7504
  23044359.7894     377542.35949    281850.43947                  23044357.5164
        44.5004         28.5004
  22889940.7444    -774001.82849   -586592.22547                  22889938.7684
        46.5004         30.5004
  20446968.1994      14009.30549      9993.64048                  20446965.6474
        53.7504         45.5004
 04  6 29 21 25 10.0000000  0  4G11G14G20G25
  21594274.5154     -62308.57849    -47381.00847                  21594271.8604
        48.5004         38.0004
  23047429.1134     393673.57049    294420.19847                  23047426.7244
        44.7504         28.7504
  22883055.9204    -810183.37549   -614785.62847                  22883053.5574
        46.7504         30.0004
  20447026.3384      14315.15649     10231.96048                  20447023.6624
        53.2504         45.2504
 04  6 29 21 25 20.0000000  0  4G11G14G20G25
  21593710.8784     -65268.98449    -49687.82647                  21593708.7524
        50.0004         38.5004
  23050487.8994     409746.46549    306944.53947                  23050485.9754
        45.0004         29.5004
  22876160.8344    -846417.04349   -643019.62847                  22876158.5044
        46.5004         31.0004
  20447083.3924      14614.57849     10465.28348                  20447080.5294
        52.7504         45.0004
 04  6 29 21 25 30.0000000  0  4G11G14G20G25
  21593148.0254     -68229.48849    -51994.72947                  21593145.2854
        50.2504         39.0004
  23053536.6784     425762.99249    319424.91147                  23053534.0114
        45.0004         30.2504
  22869255.7174    -882700.85949   -671292.73147                  22869253.7104
        46.7504         31.2504
  20447139.4914      14909.48849     10695.06448                  20447136.8884
        53.0004         44.5004
 04  6 29 21 25 40.0000000  0  4G11G14G20G25
  21592585.2974     -71185.81249    -54298.35147                  21592582.8914
        49.0004         38.5004
  23056574.2114     441727.39849    331864.69747                  23056572.2084
        46.0004         31.0004
  22862342.8604    -919030.52049   -699601.54347                  22862340.8354
        46.5004         30.5004
  20447195.4564      15204.09849     10924.63248                  20447193.3104
        52.5004         44.2504
 04  6 29 21 25 50.0000000  0  4G11G14G20G25
  21592022.9674     -74138.69549    -56599.29748                  21592020.9984
        51.0004         39.5004
  23059602.4014     457639.03949    344263.38947                  23059600.2284
        46.7504         32.0004
  22855420.5984    -955406.57849   -727946.49447                  22855418.0484
        46.2504         30.7504
  20447251.1094      15497.63349     11153.36048                  20447248.7634
        52.2504         44.5004
 04  6 29 21 26  0.0000000  0  4G11G14G20G25
  21591462.0324     -77088.55949    -58897.91247                  21591460.1914
        50.2504         39.2504
  23062620.1184     473497.43449    356620.56247                  23062618.1254
        46.5004         31.5004
  22848489.7294    -991829.51249   -756328.00747                  22848487.3604
        46.5004         29.5004
  20447306.8664      15789.64849     11380.89048                  20447304.5954
        52.5004         44.5004
 04  6 29 21 26 10.0000000  0  4G11G14G20G25
  21590901.7164     -80031.19149    -61190.87648                  21590899.9034
        50.0004         39.7504
  23065628.0114     489306.77349    368939.50147                  23065626.4574
        45.0004         32.0004
  22841550.8114   -1028294.96149   -784742.62247                  22841547.9254
        47.0004         30.7504
  20447362.8834      16084.29349     11610.48448                  20447360.2364
        53.0004         45.2504
 04  6 29 21 26 20.0000000  0  4G11G14G20G25
  21590342.7094     -82971.85549    -63482.32048                  21590340.1074
        50.2504         40.0004
  23068625.8624     505061.68049    381216.02247                  23068624.9344
        45.5004         31.5004
  22834602.4964   -1064808.23849   -813194.54047                  22834599.7294
        46.2504         28.5004
  20447418.5294      16376.21949     11837.95248                  20447416.1854
        52.5004         44.7504
 04  6 29 21 26 30.0000000  0  4G11G14G20G25
  21589784.3374     -85904.05549    -65767.15648                  21589782.3194
        47.7504         40.0004
  23071615.0264     520768.90649    393455.40447                  23071613.9854
        45.5004         31.0004
  22827646.3334   -1101362.53149   -841678.37547                  22827643.4294
        45.5004         29.5004
  20447474.7264      16672.07049     12068.47948                  20447472.1634
        52.5004         45.0004
 04  6 29 21 26 40.0000000  0  4G11G14G20G25
  21589227.6524     -88830.66049    -68047.63348                  21589224.9294
        51.2504         39.7504
  23074593.7714     536425.52749    405655.34447                  23074593.4214
        45.0004         31.0004
  22820681.5414   -1137960.63349   -870196.36347                  22820678.9874
        47.0004         29.2504
  20447530.9634      16968.89549     12299.76848                  20447528.6844
        53.2504         44.7504
 04  6 29 21 26 50.0000000  0  4G11G14G20G25
  21588672.1094     -91750.60549    -70322.92647                  21588669.4804
        49.5004         38.7504
  23077563.9354     552032.74649    417816.78047                  23077563.3294
        45.5004         29.2504
  22813709.1654   -1174601.27749   -898747.51547                  22813706.0854
        46.0004         28.0004
  20447588.4684      17267.82849     12532.69148                  20447585.5054
        51.7504         44.0004
 04  6 29 21 27  0.0000000  0  4G11G14G20G25
  21588117.5614     -94663.56649    -72592.77048                  21588114.8614
        49.2504         39.5004
  23080524.5824     567590.87149    429939.97447                  23080523.9194
        45.2504         29.0004
  22806728.4764   -1211284.10949   -927331.53547                  22806725.4094
        46.2504         30.5004
  20447645.4314      17569.21949     12767.54848                  20447643.1454
        51.7504         45.0004
 04  6 29 21 27 10.0000000  0  4G11G14G20G25
  21587564.8194     -97568.88349    -74856.67247                  21587562.1044
        47.0004         38.5004
  23083476.0924     583100.44949    442025.33447                  23083474.8964
        44.5004         29.0004
  22799740.0114   -1248008.45749   -955947.89247                  22799737.5644
        47.5004         30.2504
  20447703.4574      17873.54349     13004.67648                  20447701.0294
        53.0004         44.5004
 04  6 29 21 27 20.0000000  0  4G11G14G20G25
  21587013.7144    -100464.01249    -77112.61847                  21587011.3124
        46.0004         39.0004
  23086418.7004     598564.05149    454074.87547                  23086417.6614
        44.7504         29.2504
  22792744.3054   -1284771.68049   -984594.54147                  22792742.1274
        46.2504         32.0004
  20447762.5184      18183.31649     13246.06248                  20447759.9084
        52.7504         45.0004
 04  6 29 21 27 30.0000000  0  4G11G14G20G25
  21586463.8654    -103353.74249    -79364.35947                  21586460.8004
        48.0004         39.0004
  23089351.1084     613976.99249    466084.94947                  23089349.7854
        44.5004         28.2504
  22785740.5674   -1321578.42249  -1013275.10447                  22785738.3614
        46.5004         31.2504
  20447821.2174      18493.81349     13487.99948                  20447818.8944
        51.2504         45.0004
 04  6 29 21 27 40.0000000  0  4G11G14G20G25
  21585916.2004    -106231.52349    -81606.80447                  21585913.8614
        49.7504         38.2504
  23092275.5964     629345.85249    478060.67347                  23092273.7664
        44.5004         27.2504
  22778728.9204   -1358421.93049  -1041984.31947                  22778726.8234
        45.7504         31.0004
  20447881.8754      18811.61349     13735.63248                  20447879.1354
        52.0004         44.2504
 04  6 29 21 27 50.0000000  0  4G11G14G20G25
  21585370.5534    -109099.19149    -83841.35747                  21585367.9114
        50.2504         38.5004
  23095191.1574     644668.86349    490000.67547                  23095189.9804
        44.5004         26.7504
  22771710.5854   -1395303.97349  -1070723.56747                  22771708.0154
        46.2504         31.2504
  20447943.4644      19134.86749     13987.52048                  20447940.6784
        52.5004         44.5004
 04  6 29 21 28  0.0000000  0  4G11G14G20G25
  21584826.4714    -111958.62949    -86069.49747                  21584823.8414
        50.0004         38.5004
  23098098.8714     659944.08249    501903.40147                  23098096.9524
        44.0004         26.2504
  22764684.8334   -1432226.44949  -1099494.32647                  22764682.2444
        45.7504         30.7504
  20448005.5574      19461.62549     14242.13848                  20448003.0394
        52.2504         43.7504
 04  6 29 21 28 10.0000000  0  4G11G14G20G25
  21584284.1244    -114808.04749    -88289.82947                  21584282.1534
        48.7504         39.0004
  23100996.4864     675173.31349    513770.34047                  23100994.7714
        43.7504         27.2504
  22757651.1694   -1469187.40649  -1128295.02847                  22757648.9674
        45.7504         30.7504
  20448069.0424      19793.62949     14500.84448                  20448066.4044
        51.7504         44.7504
 04  6 29 21 28 20.0000000  0  4G11G14G20G25
  21583744.9474    -117642.90249    -90498.81847                  21583742.2004
        48.5004         39.0004
  23103886.9564     690361.08649    525604.92947                  23103884.6924
        44.7504         28.5004
  22750611.1664   -1506182.19549  -1157122.13247                  22750608.7744
        46.5004         31.5004
  20448133.7554      20135.35549     14767.11448                  20448131.2054
        52.0004         44.5004
 04  6 29 21 28 30.0000000  0  4G11G14G20G25
  21583207.7444    -120465.77749    -92698.47147                  21583204.9034
        50.0004         39.2504
  23106769.3324     705504.90649    537405.29447                  23106766.6004
        45.5004         28.5004
  22743564.1934   -1543213.35249  -1185977.55147                  22743562.0304
        44.0004         30.5004
  20448200.3014      20484.25849     15038.98448                  20448197.4954
        52.2504         44.7504
 04  6 29 21 28 40.0000000  0  4G11G14G20G25
  21582672.0974    -123279.14149    -94890.71448                  21582669.5454
        49.7504         39.5004
  23109642.6354     720602.26249    549169.45247                  23109639.7324
        46.0004         28.7504
  22736509.6774   -1580283.07449  -1214863.02947                  22736508.2964
        44.5004         31.0004
  20448267.5084      20837.85949     15314.51848                  20448264.9534
        52.2504         44.5004
 04  6 29 21 28 50.0000000  0  4G11G14G20G25
  21582139.4014    -126077.71949    -97071.42647                  21582137.2814
        48.5004         39.0004
  23112507.9904     735658.36749    560901.47547                  23112504.7684
        46.5004         28.0004
  22729449.7524   -1617386.17649  -1243774.51547                  22729447.3944
        45.0004         30.0004
  20448336.6164      21201.39149     15597.79348                  20448334.2244
        52.5004         44.5004
 04  6 29 21 29  0.0000000  0  4G11G14G20G25
  21581609.4624    -128865.32049    -99243.59148                  21581607.3944
        50.7504         39.5004
  23115364.5114     750669.61349    572598.55247                  23115361.7294
        46.5004         28.7504
  22722382.3464   -1654526.32449  -1272714.88447                  22722380.0594
        45.5004         30.5004
  20448407.0774      21571.15249     15885.91048                  20448404.8964
        52.0004         45.0004
 04  6 29 21 29 10.0000000  0  4G11G14G20G25
  21581081.3494    -131641.03549   -101406.50347                  21581079.2234
        50.7504         38.5004
  23118212.1874     765636.87149    584261.34047                  23118209.4734
        47.0004         27.7504
  22715307.4044   -1691702.46149  -1301683.30447                  22715305.6264
        45.2504         30.5004
  20448478.7064      21947.96549     16179.52248                  20448476.6434
        53.0004         44.2504
 04  6 29 21 29 20.0000000  0  4G11G14G20G25
  21580554.9814    -134404.66849   -103559.98748                  21580553.2544
        50.5004         39.5004
  23121052.2904     780560.35249    595890.03647                  23121049.5604
        46.7504         29.5004
  22708226.3054   -1728914.28949  -1330679.51447                  22708224.4544
        45.0004         30.5004
  20448551.7874      22331.98049     16478.75448                  20448549.7274
        52.7504         45.0004
 04  6 29 21 29 30.0000000  0  4G11G14G20G25
  21580032.1394    -137153.38349   -105701.85147                  21580029.5534
        50.2504         39.2504
  23123884.3214     795442.98849    607486.86047                  23123881.9864
        46.5004         29.7504
  22701138.8034   -1766158.90249  -1359701.28147                  22701136.8914
        45.2504         29.7504
  20448626.7814      22726.07849     16785.82948                  20448624.5464
        52.7504         44.7504
 04  6 29 21 29 40.0000000  0  4G11G14G20G25
  21579512.1704    -139885.11749   -107830.48348                  21579509.7494
        50.5004         39.5004
  23126708.6584     810286.77749    619053.46947                  23126706.8374
        46.2504         29.2504
  22694046.0314   -1803434.06649  -1388746.85147                  22694043.2554
        45.2504         30.2504
  20448703.9494      23132.25849     17102.34148                  20448701.7584
        52.5004         45.5004
 04  6 29 21 29 50.0000000  0  4G11G14G20G25
  21578994.7474    -142604.84849   -109949.77147                  21578992.1074
        50.7504         39.2504
  23129524.3654     825086.76649    630585.90247                  23129523.6954
        45.5004         29.5004
  22686945.5804   -1840744.69949  -1417820.06047                  22686943.6374
        46.2504         30.2504
  20448782.8164      23545.52049     17424.34648                  20448780.3764
        52.2504         44.7504
 04  6 29 21 29 59.9990000  0  4G11G14G20G25
  21578481.4894    -145301.74649   -112051.25547                  21578478.9284
        49.5004         38.7504
  23132333.9454     839852.14549    642091.38347                  23132333.1034
        44.7504         29.0004
  22679841.8654   -1878076.39149  -1446909.66547                  22679839.7904
        44.5004         29.5004
  20448864.6604      23976.34849     17760.06348                  20448862.3184
        52.5004         45.0004
 04  6 29 21 30  9.9990000  0  4G11G14G20G25
  21577971.4614    -147982.34049   -114140.03847                  21577968.8074
        50.0004         38.5004
  23135136.3154     854579.84449    653567.47847                  23135135.8614
        43.5004         28.2504
  22672731.5544   -1915442.55149  -1476026.15447                  22672729.1664
        45.7504         31.2504
  20448948.7714      24418.77349     18104.80948                  20448946.4214
        52.5004         44.5004
 04  6 29 21 30 19.9990000  0  4G11G14G20G25
  21577464.3734    -150646.32449   -116215.87947                  21577462.1264
        51.0004         38.5004
  23137931.1744     869268.44949    665013.10247                  23137931.0044
        43.5004         29.0004
  22665615.1834   -1952839.23449  -1505166.40647                  22665612.7644
        43.7504         31.2504
  20449035.3624      24872.81649     18458.60848                  20449033.0704
        52.5004         44.2504
 04  6 29 21 30 29.9990000  0  4G11G14G20G25
  21576960.8874    -153293.03949   -118278.27547                  21576958.3604
        50.0004         39.0004
  23140719.6344     883918.68449    676428.80347                  23140718.8204
        44.0004         28.7504
  22658492.7454   -1990265.64549  -1534329.83147                  22658491.2704
        44.7504         31.0004
  20449124.1834      25339.03949     18821.89048                  20449121.9424
        52.0004         44.5004
 04  6 29 21 30 39.9990000  0  4G11G14G20G25
  21576459.8414    -155924.48849   -120328.75647                  21576457.8854
        49.5004         39.0004
  23143499.8894     898528.55149    687813.11147                  23143499.3614
        44.2504         28.5004
  22651365.0274   -2027723.75049  -1563517.95747                  22651363.1454
        46.2504         32.0004
  20449214.6944      25815.49649     19193.15648                  20449212.6364
        52.5004         44.2504
 04  6 29 21 30 49.9990000  0  4G11G14G20G25
  21575962.5874    -158539.44949   -122366.39148                  21575960.2384
        51.0004         39.5004
  23146273.0484     913099.22749    699166.86147                  23146272.4734
        44.5004         28.5004
  22644230.7764   -2065212.16449  -1592729.69347                  22644228.7854
        45.0004         31.5004
  20449307.2684      26303.37149     19573.32048                  20449305.1154
        52.0004         44.5004
 04  6 29 21 30 59.9990000  0  4G11G14G20G25
  21575468.8204    -161134.63749   -124388.62948                  21575466.5834
        50.0004         39.5004
  23149038.3614     927634.00849    710492.63747                  23149037.6584
        44.2504         26.7504
  22637092.0654   -2102727.54749  -1621962.44747                  22637090.2664
        45.5004         31.5004
  20449402.9304      26805.91049     19964.89748                  20449400.6274
        52.0004         44.0004
 04  6 29 21 31  9.9990000  0  4G11G14G20G25
  21574978.1394    -163712.25049   -126397.16947                  21574975.8364
        49.5004         39.2504
  23151797.5384     942130.82849    721788.81847                  23151795.9474
        45.0004         27.5004
  22629947.9554   -2140271.94949  -1651217.82947                  22629945.3704
        46.5004         32.0004
  20449501.1754      27320.92649     20366.21148                  20449498.4454
        53.0004         44.0004
 04  6 29 21 31 19.9990000  0  4G11G14G20G25
  21574490.7754    -166273.71549   -128393.11547                  21574488.4024
        49.5004         39.0004
  23154549.1444     956588.32449    733054.38247                  23154547.1864
        45.5004         28.0004
  22622797.8834   -2177846.68449  -1680496.83547                  22622794.9274
        46.5004         32.0004
  20449601.1214      27847.04749     20776.17448                  20449598.5604
        52.5004         44.0004
 04  6 29 21 31 29.9990000  0  4G11G14G20G25
  21574006.3944    -168818.42649   -130376.02547                  21574004.1504
        49.7504         38.5004
  23157292.8544     971007.08249    744289.77347                  23157289.9164
        45.7504         28.2504
  22615641.2874   -2215451.06249  -1709798.92547                  22615638.8874
        46.0004         31.0004
  20449703.5334      28384.83249     21195.22548                  20449701.0094
        52.2504         43.5004
 04  6 29 21 31 39.9990000  0  4G11G14G20G25
  21573525.2024    -171347.96149   -132347.10948                  21573522.6444
        49.7504         39.5004
  23160029.1574     985385.59449    755493.78147                  23160026.6034
        45.7504         28.0004
  22608479.9034   -2253086.43749  -1739125.19047                  22608477.0634
        45.7504         31.2504
  20449808.0994      28932.73849     21622.15948                  20449805.3024
        52.7504         44.5004
 04  6 29 21 31 49.9990000  0  4G11G14G20G25
  21573046.7804    -173860.83249   -134305.19147                  21573044.5934
        50.5004         39.0004
  23162757.9824     999725.23849    766667.52147                  23162755.2124
        45.5004         27.0004
  22601312.2224   -2290751.36349  -1768474.44847                  22601310.2724
        46.5004         31.0004
  20449914.9624      29492.16849     22058.08248                  20449912.0674
        52.0004         44.5004
 04  6 29 21 31 59.9990000  0  4G11G14G20G25
  21572572.7524    -176353.12549   -136247.24847                  21572569.8234
        48.7504         39.2504
  23165480.1834    1014030.08649    777814.17847                  23165476.9294
        46.2504         28.5004
  22594139.9354   -2328441.76249  -1797843.60147                  22594137.6864
        46.0004         31.7504
  20450023.7824      30066.96549     22505.97148                  20450021.2144
        52.5004         44.7504
 04  6 29 21 32  9.9990000  0  4G11G14G20G25
  21572101.6264    -178828.62949   -138176.21747                  21572099.4694
        49.0004         39.0004
  23168195.1664    1028296.34849    788930.71847                  23168191.7074
        46.2504         26.7504
  22586962.4384   -2366161.30949  -1827235.43547                  22586960.1714
        46.5004         31.5004
  20450135.1534      30653.32049     22962.88648                  20450132.7414
        52.7504         44.5004
 04  6 29 21 32 19.9990000  0  4G11G14G20G25
  21571634.0524    -181284.69949   -140090.05447                  21571632.0724
        49.7504         39.2504
  23170902.6624    1042526.66049    800019.25247                  23170899.0104
        46.0004         28.5004
  22579779.2864   -2403907.28149  -1856647.89847                  22579777.6844
        46.5004         32.0004
  20450249.9354      31253.85549     23430.82448                  20450247.0754
        52.7504         45.0004
 04  6 29 21 32 29.9990000  0  4G11G14G20G25
  21571168.7404    -183727.75449   -141993.72647                  21571166.5914
        49.7504         38.5004
  23173602.6904    1056714.71149    811074.89047                  23173599.1234
        47.0004         28.2504
  22572590.7944   -2441685.97749  -1886085.82347                  22572588.0934
        46.2504         32.5004
  20450365.4464      31862.20349     23904.86748                  20450362.8574
        52.5004         45.2504
 04  6 29 21 32 39.9990000  0  4G11G14G20G25
  21570708.3734    -186150.24249   -143881.38847                  21570705.9794
        49.5004         38.5004
  23176295.9654    1070868.00049    822103.41347                  23176292.3794
        46.7504         28.2504
  22565396.9174   -2479489.62549  -1915543.21247                  22565393.9534
        46.0004         32.5004
  20450484.0534      32485.96949     24390.92548                  20450481.5974
        51.7504         44.5004
 04  6 29 21 32 49.9990000  0  4G11G14G20G25
  21570251.3914    -188553.68749   -145754.21847                  21570248.9244
        47.5004         38.7504
  23178982.3034    1084985.06649    833103.72247                  23178979.1774
        47.0004         28.5004
  22558197.7264   -2517319.73449  -1945021.22147                  22558195.3394
        46.0004         32.5004
  20450605.4394      33123.56349     24887.74048                  20450602.9294
        52.7504         44.7504
 04  6 29 21 32 59.9990000  0  4G11G14G20G25
  21569798.3284    -190933.02749   -147608.25047                  21569796.0354
        49.2504         39.0004
  23181662.4184    1099071.06649    844079.83147                  23181659.7924
        46.5004         27.5004
  22550995.0704   -2555171.15649  -1974515.84147                  22550992.8464
        44.7504         32.5004
  20450730.4204      33779.93449     25399.20448                  20450727.9654
        51.5004         44.5004
 04  6 29 21 33  9.9990000  0  4G11G14G20G25
  21569349.3394    -193291.65649   -149446.15147                  21569347.1844
        49.5004         39.2504
  23184336.5684    1113122.53949    855028.99147                  23184333.6304
        45.5004         28.7504
  22543787.5334   -2593047.12149  -2004029.56347                  22543785.1594
        46.5004         32.0004
  20450858.1624      34451.75049     25922.68248                  20450855.6964
        52.0004         44.7504
 04  6 29 21 33 19.9990000  0  4G11G14G20G25
  21568904.6704    -195630.06649   -151268.30547                  21568901.8914
        50.0004         39.2504
  23187003.5534    1127139.08649    865950.99447                  23187001.8294
        45.2504         26.7504
  22536575.2314   -2630948.08649  -2033562.78447                  22536572.8424
        45.5004         31.7504
  20450988.4324      35138.44549     26457.75948                  20450986.3574
        52.2504         44.7504
 04  6 29 21 33 29.9990000  0  4G11G14G20G25
  21568464.6474    -197942.46549   -153070.17947                  21568462.1804
        49.2504         39.2504
  23189664.8024    1141126.56349    876850.30747                  23189663.5654
        45.0004         28.2504
  22529359.5334   -2668867.99249  -2063110.74647                  22529357.0234
        46.5004         32.2504
  20451123.5674      35845.91849     27009.03948                  20451121.0604
        52.5004         45.0004
 04  6 29 21 33 39.9990000  0  4G11G14G20G25
  21568029.2044    -200232.46149   -154854.60848                  21568026.2884
        50.5004         39.7504
  23192320.8874    1155081.22749    887724.02147                  23192318.8914
        44.7504         27.2504
  22522139.2494   -2706810.42249  -2092676.25047                  22522136.9404
        47.0004         32.0004
  20451261.4364      36570.45349     27573.59548                  20451258.6604
        52.5004         44.5004
 04  6 29 21 33 49.9990000  0  4G11G14G20G25
  21567597.5914    -202498.77349   -156620.57047                  21567594.9754
        50.2504         38.7504
  23194969.9624    1169004.58649    898573.38247                  23194968.4194
        43.7504         28.0004
  22514914.2564   -2744773.92649  -2122258.19147                  22514912.6164
        47.2504         32.0004
  20451402.7564      37313.35549     28152.48648                  20451400.2314
        52.0004         44.5004
 04  6 29 21 33 59.9990000  0  4G11G14G20G25
  21567171.0424    -204741.67249   -158368.29547                  21567168.0734
        48.2504         39.2504
  23197613.7744    1182896.36749    909398.11947                  23197612.0854
        45.0004         28.2504
  22507686.1374   -2782758.66849  -2151856.67647                  22507684.2744
        46.5004         32.2504
  20451547.7554      38074.33249     28745.45848                  20451545.4734
        52.0004         44.7504
 04  6 29 21 34  9.9990000  0  4G11G14G20G25
  21566748.1834    -206961.30549   -160097.90547                  21566745.8474
        49.7504         38.2504
  23200251.4254    1196756.29749    920198.01447                  23200250.1464
        45.2504         29.7504
  22500454.2564   -2820764.82849  -2181471.87147                  22500452.0184
        47.5004         31.5004
  20451695.7524      38853.12949     29352.28648                  20451693.2134
        52.2504         44.7504
 04  6 29 21 34 19.9990000  0  4G11G14G20G25
  21566330.5464    -209158.23049   -161809.79947                  21566327.8694
        46.7504         38.7504
  23202883.4164    1210583.94149    930972.79247                  23202881.7504
        46.0004         29.7504
  22493218.1934   -2858792.69549  -2211103.96547                  22493215.7254
        47.5004         33.0004
  20451847.6734      39649.25049     29972.64748                  20451844.8824
        52.5004         45.5004
 04  6 29 21 34 29.9990000  0  4G11G14G20G25
  21565916.5244    -211332.92249   -163504.36047                  21565913.6814
        49.2504         38.7504
  23205508.1004    1224378.85949    941722.06547                  23205506.5174
        46.0004         30.0004
  22485976.8974   -2896842.61349  -2240753.25147                  22485974.4164
        48.0004         33.0004
  20452002.1774      40462.19549     30606.11148                  20451999.6044
        52.7504         45.0004
 04  6 29 21 34 39.9990000  0  4G11G14G20G25
  21565506.8654    -213485.27749   -165181.52447                  21565504.1804
        49.7504         39.0004
  23208127.4554    1238141.29749    952446.00447                  23208125.5974
        46.0004         29.7504
  22478732.3734   -2934914.37549  -2270419.55047                  22478730.0774
        47.5004         32.0004
  20452160.3964      41292.14149     31252.82548                  20452157.7594
        52.0004         45.0004
 04  6 29 21 34 49.9990000  0  4G11G14G20G25
  21565101.5864    -215616.12149   -166841.92347                  21565099.2254
        50.7504         38.2504
  23210739.8534    1251870.46549    963144.04247                  23210738.4334
        45.5004         29.5004
  22471483.3014   -2973008.77349  -2300103.48047                  22471480.7464
        47.2504         32.2504
  20452320.8424      42138.15249     31912.05448                  20452318.1794
        53.0004         44.5004
 04  6 29 21 34 59.9990000  0  4G11G14G20G25
  21564701.2714    -217720.28149   -168481.55047                  21564698.3384
        51.2504         38.2504
  23213347.3514    1265571.48849    973820.15747                  23213345.5564
        46.5004         28.7504
  22464230.6464   -3011120.49649  -2329800.93247                  22464228.4214
        47.2504         31.5004
  20452486.1874      43005.32049     32587.77148                  20452483.4924
        53.0004         44.5004
 04  6 29 21 35  9.9990000  0  4G11G14G20G25
  21564305.2594    -219801.46949   -170103.25548                  21564302.7384
        49.7504         39.5004
  23215948.4534    1279240.73049    984471.49947                  23215946.7264
        46.0004         29.2504
  22456974.4124   -3049253.09049  -2359514.61547                  22456971.7504
        47.0004         32.7504
  20452654.3884      43890.04349     33277.16548                  20452651.8654
        53.7504         44.7504
 04  6 29 21 35 19.9990000  0  4G11G14G20G25
  21563913.2034    -221859.55149   -171706.96547                  21563910.6644
        50.2504         39.2504
  23218544.1034    1292878.30549    995098.16147                  23218541.8084
        46.0004         29.0004
  22449713.7264   -3087406.39549  -2389244.45447                  22449712.0584
        45.5004         32.5004
  20452826.0104      44792.36749     33980.27348                  20452823.3224
        52.5004         44.7504
 04  6 29 21 35 29.9990000  0  4G11G14G20G25
  21563526.8204    -223892.75449   -173291.28547                  21563523.9184
        50.2504         39.0004
  23221132.5224    1306486.07449   1005701.61347                  23221130.6734
        46.0004         28.7504
  22442449.8854   -3125578.39849  -2418988.84847                  22442448.0674
        46.5004         32.7504
  20453001.5244      45714.18849     34698.59148                  20452998.6944
        52.5004         45.0004
 04  6 29 21 35 39.9990000  0  4G11G14G20G25
  21563143.1744    -225908.35549   -174861.90447                  21563140.4234
        51.0004         39.0004
  23223714.8244    1320056.86349   1016276.24847                  23223713.4574
        45.2504         28.5004
  22435181.2674   -3163776.22749  -2448753.41547                  22435179.0634
        46.0004         32.0004
  20453179.6544      46648.24649     35426.42048                  20453176.9124
        52.2504         44.7504
 04  6 29 21 35 49.9990000  0  5G11G14G20G16G25
  21562764.0324    -227898.72749   -176412.84347                  21562761.5704
        50.5004         38.7504
  23226292.2684    1333598.23849   1026827.94447                  23226290.0654
        45.7504         28.0004
  22427909.0814   -3201992.26649  -2478532.10847                  22427906.6824
        46.0004         32.5004
  24101116.0594      -8276.30159
        37.5004
  20453360.7684      47601.95349     36169.57848                  20453358.6544
        52.0004         44.7504
 04  6 29 21 35 59.9990000  0  5G11G14G20G16G25
  21562390.1024    -229865.83649   -177945.68547                  21562387.4184
        49.7504         38.7504
  23228862.2354    1347108.25849   1037355.22847                  23228860.5634
        45.0004         27.5004
  22420633.0114   -3240228.27349  -2508326.41247                  22420630.4804
        46.2504         33.0004
  24093581.1114     -47866.26649    -30516.32556                  24093581.6834
        38.5004         21.7504
  20453545.8064      48573.32849     36926.46948                  20453543.1524
        52.0004         44.5004
 04  6 29 21 36  9.9990000  0  5G11G14G20G16G25
  21562020.0364    -231809.47749   -179460.20947                  21562017.3184
        50.0004         38.0004
  23231427.5684    1360587.18449   1047858.26447                  23231425.5174
        45.0004         26.0004
  22413353.2364   -3278483.95749  -2538136.00747                  22413350.8234
        46.0004         32.2504
  24086040.9754     -87493.45349    -61394.62546                  24086041.0584
        37.7504         22.5004
  20453733.6404      49562.62949     37697.36648                  20453731.5364
        52.0004         44.2504
 04  6 29 21 36 19.9990000  0  5G11G14G20G16G25
  21561654.1194    -233732.24649   -180958.47647                  21561651.7314
        50.2504         38.5004
  23233986.5534    1374032.37549   1058335.05747                  23233983.8524
        44.7504         25.7504
  22406069.3154   -3316761.84449  -2567962.93947                  22406066.7624
        45.0004         33.2504
  24078492.2724    -127160.36749    -92303.88546                  24078492.7444
        37.7504         22.5004
  20453924.8674      50567.21149     38480.14848                  20453922.3534
        52.0004         45.0004
 04  6 29 21 36 29.9990000  0  5G11G14G20G16G25
  21561293.9544    -235625.96949   -182434.11447                  21561291.0544
        50.2504         38.5004
  23236538.9964    1387452.21549   1068792.05846                  23236537.5984
        44.7504         25.2504
  22398782.4364   -3355053.56649  -2597800.63647                  22398779.9534
        45.5004         32.5004
  24070938.6814    -166858.67249   -123237.58346                  24070938.6314
        40.5004         23.0004
  20454120.8164      51595.28949     39281.24348                  20454117.6824
        52.0004         44.5004
 04  6 29 21 36 39.9990000  0  5G11G14G20G16G25
  21560937.4674    -237498.53949   -183893.26747                  21560935.1644
        50.2504         39.0004
  23239086.7594    1400838.73849   1079223.08547                  23239084.8964
        44.7504         26.0004
  22391491.5864   -3393366.99249  -2627655.23247                  22391489.4694
        45.7504         33.7504
  24063376.8244    -206596.09449   -154201.82146                  24063376.9734
        42.5004         22.7504
  20454319.3874      52638.85249     40094.41248                  20454316.8084
        51.5004         44.7504
 04  6 29 21 36 49.9990000  0  5G11G14G20G16G25
  21560585.5804    -239347.79749   -185334.26447                  21560583.0194
        50.0004         38.5004
  23241628.5884    1414194.09849   1089629.87646                  23241626.5314
        44.2504         24.7504
  22384196.7154   -3431699.81249  -2657524.94447                  22384194.3364
        44.7504         33.5004
  24055807.5454    -246370.41449   -185194.76546                  24055807.8444
        41.2504         22.7504
  20454521.4264      53700.08649     40921.33548                  20454518.5594
        51.7504         44.7504
 04  6 29 21 36 59.9990000  0  5G11G14G20G16G25
  21560238.5904    -241170.83249   -186754.81547                  21560236.3804
        50.0004         38.5004
  23244164.2134    1427521.29349   1100014.68047                  23244162.2064
        44.0004         25.7504
  22376899.4964   -3470048.90249  -2687407.34247                  22376896.6504
        45.0004         33.5004
  24048231.9344    -286178.46149   -216213.99546                  24048231.9664
        41.0004         22.7504
  20454727.3584      54781.95349     41764.34748                  20454724.7694
        52.0004         44.5004
 04  6 29 21 37  9.9990000  0  5G11G14G20G16G25
  21559896.7374    -242968.80949   -188155.83447                  21559894.4424
        50.2504         38.2504
  23246694.6304    1440819.31349   1110376.73646                  23246692.7744
        44.2504         25.2504
  22369598.2664   -3508415.34049  -2717303.24847                  22369595.9204
        44.2504         32.7504
  24040650.3044    -326021.20349   -247260.25346                  24040650.1154
        42.5004         21.7504
  20454936.6484      55883.30949     42622.55148                  20454933.8104
        51.0004         45.0004
 04  6 29 21 37 19.9990000  0  5G11G14G20G16G25
  21559559.3934    -244741.75049   -189537.36747                  21559556.5644
        50.0004         38.5004
  23249219.7074    1454088.10249   1120716.06146                  23249218.1704
        44.0004         25.2504
  22362294.3324   -3546799.12949  -2747212.70747                  22362291.5064
        44.0004         32.7504
  24033061.6014    -365898.59849   -278333.51846                  24033061.0154
        41.0004         22.5004
  20455150.1384      57004.02049     43495.80848                  20455147.1324
        52.7504         44.5004
 04  6 29 21 37 29.9990000  0  5G11G14G20G16G25
  21559226.0124    -246492.21949   -190901.38047                  21559223.8204
        51.0004         38.7504
  23251738.7964    1467325.08249   1131030.56947                  23251737.4324
        44.0004         26.5004
  22354986.4354   -3585202.60549  -2777137.46047                  22354983.6794
        44.2504         33.2504
  24025466.1584    -405813.00049   -309435.60246                  24025465.7254
        41.0004         22.5004
  20455366.2824      58141.59449     44382.23848                  20455363.7724
        52.5004         44.5004
 04  6 29 21 37 39.9990000  0  5G11G14G20G16G25
  21558898.0474    -248215.44949   -192244.16647                  21558895.4904
        50.5004         38.2504
  23254253.1834    1480535.18849   1141324.14447                  23254251.6654
        44.5004         26.7504
  22347675.6044   -3623620.81649  -2807073.71647                  22347673.4404
        43.5004         33.2504
  24017864.8524    -445759.42249   -340562.65746                  24017864.2544
        41.2504         22.7504
  20455586.9794      59300.75449     45285.46248                  20455584.1584
        51.5004         45.2504
 04  6 29 21 37 49.9990000  0  5G11G14G20G16G25
  21558574.2214    -249917.10549   -193570.14447                  21558572.2694
        49.7504         38.7504
  23256761.0464    1493712.72749   1151592.31847                  23256759.2674
        44.7504         27.5004
  22340361.1374   -3662059.35249  -2837025.81647                  22340358.9924
        43.7504         34.0004
  24010255.4144    -485743.47749   -371719.04046                  24010255.2974
        42.2504         22.7504
  20455810.4234      60475.75849     46201.05448                  20455808.3284
        51.7504         45.5004
 04  6 29 21 37 59.9990000  0  5G11G14G20G16G25
  21558255.0604    -251594.43749   -194877.17347                  21558252.3324
        51.0004         38.2504
  23259263.1044    1506860.48049   1161837.30747                  23259261.7174
        45.5004         28.5004
  22333043.2044   -3700515.34449  -2866991.52147                  22333040.4404
        45.0004         34.0004
  24002641.5324    -525762.25449   -402902.44946                  24002639.9424
        42.2504         24.0004
  20456037.7154      61669.40249     47131.15748                  20456034.8154
        52.2504         45.5004
 04  6 29 21 38  9.9990000  0  5G11G14G20G16G25
  21557940.7304    -253245.53949   -196163.76347                  21557938.0064
        50.7504         38.7504
  23261760.0064    1519980.44149   1172060.63247                  23261758.1314
        46.0004         28.2504
  22325721.8864   -3738986.73049  -2896969.21447                  22325720.1094
        44.5004         33.2504
  23995019.1344    -565813.66049   -434111.34246                  23995018.3074
        42.5004         23.0004
  20456268.9604      62883.61349     48077.29148                  20456265.9964
        53.0004         45.0004
 04  6 29 21 38 19.9990000  0  5G11G14G20G16G25
  21557631.4054    -254872.80549   -197431.76347                  21557628.7254
        50.0004         38.0004
  23264250.7884    1533070.19149   1182260.44447                  23264249.2954
        46.0004         27.2504
  22318397.6954   -3777475.88349  -2926960.74547                  22318395.7194
        43.5004         33.5004
  23987390.9344    -605900.00049   -465347.45346                  23987391.1774
        43.5004         22.5004
  20456503.5814      64115.89849     49037.51648                  20456500.5564
        52.5004         45.0004
 04  6 29 21 38 29.9990000  0  5G11G14G20G16G25
  21557326.4014    -256472.62949   -198678.39547                  21557324.3004
        50.0004         37.0004
  23266736.3484    1546133.44549   1192439.57847                  23266735.1164
        46.0004         29.0004
  22311070.2164   -3815978.97749  -2956963.12547                  22311068.1764
        45.0004         33.5004
  23979756.6124    -646017.47349   -496607.78146                  23979757.3614
        43.5004         22.5004
  20456742.2254      65369.91049     50014.66148                  20456739.1964
        52.5004         44.7504
 04  6 29 21 38 39.9990000  0  5G11G14G20G16G25
  21557026.3324    -258050.78949   -199908.14547                  21557023.9164
        50.2504         38.0004
  23269216.5064    1559164.46149   1202593.61447                  23269214.5184
        45.5004         27.7504
  22303739.9044   -3854501.72749  -2986980.84147                  22303738.1084
        43.2504         33.0004
  23972115.2334    -686171.64849   -527896.74246                  23972116.8824
        43.0004         23.0004
  20456983.9264      66639.91849     51004.27448                  20456980.9204
        52.5004         45.2504
 04  6 29 21 38 49.9990000  0  5G11G14G20G16G25
  21556730.2954    -259607.12949   -201120.88347                  21556727.8604
        50.7504         38.2504
  23271689.5184    1572163.31649   1212722.59447                  23271688.2034
        44.5004         27.0004
  22296406.0534   -3893043.78149  -3017013.58947                  22296403.1644
        44.2504         32.0004
  23964467.7294    -726362.20349   -559214.00246                  23964468.5924
        42.2504         22.7504
  20457228.4404      67925.91449     52006.35548                  20457225.7214
        53.5004         45.2504
 04  6 29 21 38 59.9990000  0  5G11G14G20G16G25
  21556439.0964    -261136.52349   -202312.62047                  21556436.7634
        51.2504         38.5004
  23274158.4904    1585135.18049   1222830.51847                  23274156.7594
        44.2504         27.2504
  22289068.8364   -3931599.98049  -3047057.37347                  22289066.8974
        44.5004         32.2504
  23956814.0544    -766583.99649   -590555.66446                  23956814.1824
        41.7504         22.2504
  20457476.8554      69233.02749     53024.88848                  20457474.4864
        52.5004         45.5004
 04  6 29 21 39  9.9990000  0  5G11G14G20G16G25
  21556153.2444    -262638.94949   -203483.35347                  21556151.4344
        51.5004         38.2504
  23276621.2854    1598080.19549   1232917.50147                  23276619.8184
        44.0004         27.7504
  22281729.2644   -3970170.20349  -3077112.08647                  22281727.0214
        44.5004         32.5004
  23949153.2724    -806836.74649   -621921.40546                  23949154.2024
        41.2504         21.7504
  20457729.8364      70561.35949     54059.94848                  20457727.3754
        53.2504         45.5004
 04  6 29 21 39 19.9990000  0  5G11G14G20G16G25
  21555871.6374    -264118.49249   -204636.25647                  21555869.3434
        50.7504         38.5004
  23279078.0914    1610994.47749   1242980.57247                  23279077.2124
        44.7504         25.7504
  22274385.8074   -4008758.28949  -3107180.71747                  22274383.6824
        44.5004         32.5004
  23941487.3194    -847124.34049   -653314.28346                  23941487.5424
        41.0004         22.2504
  20457985.8374      71906.75849     55108.31048                  20457983.1944
        52.5004         45.0004
 04  6 29 21 39 29.9990000  0  5G11G14G20G16G25
  21555594.9684    -265575.00049   -205771.20547                  21555592.7394
        50.5004         38.5004
  23281530.3824    1623878.09849   1253019.73647                  23281528.9104
        43.0004         26.5004
  22267039.4474   -4047364.03549  -3137263.09547                  22267037.7604
        45.0004         32.7504
  23933814.8994    -887446.53149   -684734.18446                  23933814.0374
        42.5004         22.0004
  20458245.4234      73269.30149     56170.03248                  20458242.1184
        53.2504         44.7504
 04  6 29 21 39 39.9990000  0  5G11G14G20G16G25
  21555322.5254    -267006.49649   -206886.67347                  21555319.8004
        50.2504         38.5004
  23283976.6794    1636733.04349   1263036.55647                  23283975.1714
        43.7504         26.0004
  22259690.3114   -4085985.32449  -3167357.59547                  22259688.4554
        45.2504         33.2504
  23926134.8314    -927801.17649   -716179.31046                  23926134.7514
        41.5004         22.7504
  20458508.1694      74651.10549     57246.75548                  20458505.1794
        53.0004         44.5004
 04  6 29 21 39 49.9990000  0  5G11G14G20G16G25
  21555054.6894    -268415.05549   -207984.25947                  21555051.9624
        51.0004         38.2504
  23286416.4214    1649557.30949   1273029.45446                  23286415.3994
        44.0004         24.2504
  22252337.4874   -4124624.04749  -3197465.67747                  22252335.6564
        44.7504         33.7504
  23918448.7724    -968190.21949   -747651.26446                  23918449.3334
        41.5004         25.0004
  20458774.2914      76050.05949     58336.84848                  20458771.4814
        52.5004         44.7504
 04  6 29 21 39 59.9990000  0  5G11G14G20G16G25
  21554791.5234    -269797.44549   -209061.45947                  21554788.6874
        50.5004         38.5004
  23288852.7404    1662354.08649   1283000.98647                  23288850.2564
        43.7504         25.7504
  22244982.4844   -4163276.85549  -3227584.74347                  22244980.2144
        45.0004         34.0004
  23910757.7864   -1008610.11349   -779147.25846                  23910757.3514
        41.5004         24.0004
  20459044.6864      77469.37949     59442.80548                  20459042.1014
        52.7504         44.7504
 04  6 29 21 40  9.9990000  0  5G11G14G20G16G25
  21554532.8014    -271154.54749   -210118.95647                  21554530.3284
        50.2504         38.5004
  23291281.7244    1675122.66849   1292950.52746                  23291279.8354
        44.2504         25.0004
  22237624.0544   -4201944.53549  -3257715.39247                  22237621.5994
        44.5004         34.2504
  23903060.3134   -1049061.68749   -810667.92346                  23903059.7664
        42.0004         25.5004
  20459318.3104      78908.09849     60563.88848                  20459315.3574
        51.5004         45.0004
 04  6 29 21 40 19.9990000  0  5G11G14G20G16G25
  21554279.0594    -272489.18449   -211158.94847                  21554276.3444
        50.7504         38.5004
  23293705.7864    1687860.28149   1302875.93546                  23293703.4604
        44.2504         25.5004
  22230262.7444   -4240629.71549  -3287859.68347                  22230260.6124
        45.5004         34.0004
  23895355.3774   -1089547.62949   -842215.38246                  23895355.3904
        41.0004         23.2504
  20459595.1504      80363.43849     61697.91748                  20459592.4384
        52.0004         45.5004
 04  6 29 21 40 29.9990000  0  5G11G14G20G16G25
  21554029.5594    -273799.35549   -212179.85247                  21554027.4684
        50.7504         38.5004
  23296123.8234    1700568.93049   1312778.77047                  23296122.0614
        44.7504         26.0004
  22222897.8104   -4279330.36349  -3318016.00147                  22222895.7434
        45.0004         33.5004
  23887645.4004   -1130065.74649   -873787.90746                  23887645.1394
        41.5004         23.0004
  20459875.4544      81837.37549     62846.44548                  20459873.0594
        52.7504         45.0004
 04  6 29 21 40 39.9990000  0  5G11G14G20G16G25
  21553784.4384    -275086.61349   -213182.93647                  21553782.3444
        51.0004         37.7504
  23298536.3914    1713247.02049   1322657.80147                  23298534.1464
        44.5004         26.2504
  22215530.6154   -4318047.92649  -3348185.52447                  22215528.5414
        44.7504         33.2504
  23879928.9184   -1170617.58249   -905386.71046                  23879929.3254
        41.2504         23.0004
  20460159.4584      83328.21149     64008.12148                  20460156.4894
        52.5004         44.5004
 04  6 29 21 40 49.9990000  0  5G11G14G20G16G25
  21553543.6394    -276352.63349   -214169.46047                  21553540.5804
        50.0004         37.2504
  23300943.3304    1725893.07049   1332511.83646                  23300941.4264
        44.7504         25.0004
  22208159.3454   -4356783.83649  -3378369.34947                  22208156.7544
        45.2504         32.2504
  23872205.4614   -1211204.45349   -937012.78746                  23872205.2654
        40.5004         22.5004
  20460446.2154      84834.46149     65181.82348                  20460443.4994
        52.7504         44.7504
 04  6 29 21 40 59.9990000  0  5G11G14G20G16G25
  21553307.8204    -277594.19949   -215136.91547                  21553304.9714
        50.7504         38.2504
  23303344.5504    1738510.27749   1342343.39847                  23303342.3864
        45.5004         26.7504
  22200785.1144   -4395534.80949  -3408564.90347                  22200783.1224
        45.7504         33.2504
  23864475.0704   -1251823.00449   -968663.60646                  23864475.3164
        40.5004         25.0004
  20460736.2834      86359.23449     66369.95848                  20460733.6444
        52.7504         44.7504
 04  6 29 21 41  9.9990000  0  5G11G14G20G16G25
  21553076.2124    -278809.03149   -216083.55047                  21553073.6914
        50.2504         38.5004
  23305740.2084    1751100.94149   1352154.32147                  23305738.5934
        45.2504         28.0004
  22193408.3774   -4434298.43049  -3438770.29947                  22193406.4804
        44.0004         34.0004
  23856739.7174   -1292470.82049  -1000337.14346                  23856740.2764
        40.0004         24.5004
  20461030.1374      87904.78549     67574.29348                  20461027.4764
        53.0004         45.0004
 04  6 29 21 41 19.9990000  0  5G11G14G20G16G25
  21552850.1944    -279997.96549   -217009.99147                  21552847.9604
        50.5004         39.0004
  23308131.9464    1763664.37549   1361943.97747                  23308129.2344
        45.7504         28.0004
  22186029.4484   -4473075.37949  -3468986.09547                  22186027.4424
        44.5004         33.5004
  23848999.3964   -1333148.56249  -1032034.03446                  23848999.4174
        38.7504         23.7504
  20461328.2094      89470.37149     68794.22048                  20461325.3874
        53.0004         45.0004
 04  6 29 21 41 29.9990000  0  5G11G14G20G16G25
  21552628.9624    -281163.01249   -217917.82747                  21552626.1104
        51.0004         38.5004
  23310516.7654    1776198.49649   1371710.82447                  23310514.6824
        45.7504         28.0004
  22178647.5874   -4511867.62149  -3499213.81747                  22178645.5454
        45.7504         33.5004
  23841252.1054   -1373858.14849  -1063755.78246                  23841253.2534
        38.2504         24.2504
  20461629.7164      91053.84049     70028.09248                  20461627.2674
        53.7504         44.7504
 04  6 29 21 41 39.9990000  0  5G11G14G20G16G25
  21552411.1244    -282306.19949   -218808.63747                  21552408.5424
        50.2504         39.0004
  23312895.9314    1788701.37949   1381453.31247                  23312893.9014
        45.5004         30.0004
  22171262.3474   -4550676.98049  -3529454.86947                  22171259.7164
        44.5004         33.5004
  23833498.6434   -1414601.44549  -1095503.78346                  23833500.2544
        37.5004         22.7504
  20461933.6694      92653.19549     71274.34248                  20461931.3664
        53.0004         44.7504
 04  6 29 21 41 49.9990000  0  5G11G14G20G16G25
  21552198.9184    -283422.67649   -219678.63747                  21552196.3204
        50.2504         38.2504
  23315269.7694    1801177.88749   1391175.27447                  23315268.4644
        45.7504         29.0004
  22163875.1484   -4589498.52349  -3559705.42047                  22163872.5724
        45.5004         34.2504
  23825740.3854   -1455373.44149  -1127274.14646                  23825741.6974
        39.5004         23.0004
  20462242.1624      94273.18449     72536.66348                  20462239.4114
        52.5004         45.0004
 04  6 29 21 41 59.9990000  0  5G11G14G20G16G25
  21551990.6954    -284514.23849   -220529.20947                  21551988.5114
        50.5004         38.0004
  23317638.6424    1813626.26249   1400875.28847                  23317637.0824
        45.0004         28.5004
  22156484.9604   -4628333.91049  -3589966.76547                  22156483.0234
        43.7504         33.7504
  23817976.4214   -1496175.75049  -1159068.10146                  23817977.6814
        38.2504         23.5004
  20462553.9134      95912.12949     73813.76448                  20462551.2384
        52.0004         44.5004
 04  6 29 21 42  9.9990000  0  5G11G14G20G16G25
  21551787.9284    -285580.51649   -221360.08347                  21551785.7424
        49.7504         38.0004
  23320002.4754    1826047.06349   1410553.81547                  23320001.3874
        44.2504         29.0004
  22149091.9294   -4667182.55549  -3620238.40647                  22149089.6394
        45.7504         34.0004
  23810206.7124   -1537007.83249  -1190885.23346                  23810207.6754
        39.5004         22.5004
  20462869.4974      97570.44949     75105.95348                  20462866.9264
        52.5004         45.0004
 04  6 29 21 42 19.9990000  0  5G11G14G20G16G25
  21551589.4224    -286624.46149   -222173.55947                  21551586.7414
        50.7504         37.5004
  23322359.9134    1838437.30949   1420208.53647                  23322359.1414
        43.2504         28.7504
  22141696.2054   -4706047.26249  -3650522.57647                  22141694.0464
        44.5004         33.5004
  23802430.2454   -1577872.42649  -1222727.78246                  23802430.8014
        38.7504         24.5004
  20463188.2334      99245.11749     76410.89148                  20463185.3964
        52.7504         44.7504
 04  6 29 21 42 29.9990000  0  5G11G14G20G16G25
  21551395.1944    -287644.91449   -222968.72347                  21551392.7824
        50.2504         38.0004
  23324711.7764    1850798.12149   1429840.32247                  23324710.7704
        40.5004         27.0004
  22134297.9244   -4744926.77749  -3680818.29447                  22134295.7784
        45.0004         34.0004
  23794647.5694   -1618768.20749  -1254594.55846                  23794648.7964
        38.5004         22.5004
  20463510.1674     100937.28549     77729.46048                  20463507.7664
        52.2504         45.0004
 04  6 29 21 42 39.9990000  0  5G11G14G20G16G25
  21551205.2744    -288642.85949   -223746.36247                  21551202.7214
        50.2504         38.0004
  23327058.0844    1863128.68049   1439448.52647                  23327057.8854
        40.5004         26.5004
  22126896.3724   -4783821.94549  -3711126.20647                  22126894.4724
        45.5004         34.0004
  23786859.4594   -1659696.00449  -1286486.30446                  23786860.1614
        39.0004         22.5004
  20463835.2484     102645.96549     79060.89448                  20463832.9544
        52.7504         44.5004
 04  6 29 21 42 49.9990000  0  5G11G14G20G16G25
  21551020.4844    -289615.80549   -224504.50247                  21551017.9604
        50.0004         37.7504
  23329399.0604    1875431.63349   1449035.21546                  23329398.8704
        37.7504         25.0004
  22119492.4104   -4822730.10549  -3741444.24047                  22119489.9944
        45.0004         33.7504
  23779065.9264   -1700653.12549  -1318400.91546                  23779065.8894
        39.5004         25.0004
  20464164.3064     104373.68049     80407.16248                  20464161.6684
        52.0004         44.5004
 04  6 29 21 42 59.9990000  0  5G11G14G20G16G25
  21550840.0994    -290563.52349   -225242.99947                  21550837.7844
        50.5004         38.2504
  23331734.6324    1887707.08249   1458600.48546                  23331734.7864
        36.7504         22.2504
  22112086.0174   -4861650.95349  -3771772.14547                  22112083.6104
        46.2504         34.0004
  23771266.6004   -1741639.18049  -1350338.09846                  23771266.3744
        39.5004         24.7504
  20464496.5444     106120.57449     81768.39348                  20464494.0864
        52.5004         44.0004
 04  6 29 21 43  9.9990000  0  5G11G14G20G16G25
  21550664.7604    -291483.05149   -225959.51947                  21550662.2614
        50.7504         38.2504
  23334065.6514    1899958.18849   1468146.75646                  23334065.9594
        38.5004         22.7504
  22104677.8604   -4900581.30949  -3802107.47747                  22104675.3364
        45.5004         33.7504
  23763462.1954   -1782650.96549  -1382295.28546                  23763461.6824
        40.0004         25.0004
  20464833.3174     107889.68449     83146.90348                  20464830.5314
        53.2504         43.7504
 04  6 29 21 43 19.9990000  0  5G11G14G20G16G25
  21550494.8954    -292377.85249   -226656.78247                  21550492.0544
        50.2504         38.5004
  23336392.0304    1912181.38349   1477671.28446                  23336391.3914
        37.0004         22.5004
  22097267.2404   -4939524.65649  -3832452.93347                  22097264.4454
        45.7504         33.5004
  23755651.8154   -1823692.02749  -1414275.26846                  23755651.9104
        39.0004         23.5004
  20465173.5154     109677.41049     84539.93548                  20465170.8174
        51.7504         44.5004
 04  6 29 21 43 29.9990000  0  5G11G14G20G16G25
  21550328.5764    -293250.00449   -227336.38247                  21550325.9724
        50.5004         38.2504
  23338712.3124    1924374.74649   1487172.60146                  23338711.7354
        40.0004         22.5004
  22089854.1344   -4978482.89549  -3862809.98447                  22089851.0884
        46.2504         34.0004
  23747836.7654   -1864764.09049  -1446279.45747                  23747836.8134
        40.5004         26.0004
  20465516.5854     111481.66849     85945.86648                  20465513.9464
        52.5004         44.2504
 04  6 29 21 43 39.9990000  0  5G11G14G20G16G25
  21550167.5014    -294097.49249   -227996.78448                  21550165.0574
        51.0004         39.5004
  23341028.1454    1936540.26649   1496652.19446                  23341025.9494
        38.7504         24.2504
  22082437.6024   -5017453.80149  -3893176.92047                  22082435.6924
        46.2504         34.7504
  23740015.0674   -1905865.05949  -1478306.17646                  23740015.3734
        40.7504         24.5004
  20465863.2894     113304.46949     87366.21948                  20465860.8144
        52.0004         45.0004
 04  6 29 21 43 49.9990000  0  5G11G14G20G16G25
  21550010.9614    -294917.85949   -228636.03747                  21550009.1604
        51.2504         39.2504
  23343338.5874    1948680.45349   1506112.08246                  23343336.1234
        40.0004         25.5004
  22075019.8544   -5056434.93449  -3923551.80947                  22075017.6104
        45.7504         33.7504
  23732187.9154   -1946992.30149  -1510353.28046                  23732189.4364
        41.0004         25.5004
  20466214.4184     115148.28549     88802.95948                  20466212.1674
        51.7504         44.7504
 04  6 29 21 43 59.9990000  0  5G11G14G20G16G25
  21549860.1304    -295713.51249   -229256.03447                  21549857.7294
        50.0004         39.0004
  23345643.8294    1960792.98049   1515550.39746                  23345641.1314
        42.5004         24.5004
  22067599.4234   -5095428.39149  -3953936.31447                  22067597.4814
        45.7504         34.0004
  23724356.7044   -1988148.00449  -1542422.66347                  23724357.9764
        38.2504         25.7504
  20466568.7004     117010.75449     90254.22848                  20466566.3714
        51.2504         44.5004
 04  6 29 21 44  9.9990000  0  5G11G14G20G16G25
  21549712.9224    -296484.92649   -229857.14947                  21549710.8004
        50.5004         38.5004
  23347943.8494    1972877.44549   1524966.86246                  23347940.4254
        41.7504         24.5004
  22060176.5214   -5134434.56649  -3984330.72447                  22060174.4014
        45.0004         33.2504
  23716519.5804   -2029332.52749  -1574514.43646                  23716520.6564
        40.0004         24.0004
  20466926.7284     118891.34449     91719.61948                  20466924.0834
        52.0004         44.5004
 04  6 29 21 44 19.9990000  0  5G11G14G20G16G25
  21549570.9584    -297229.39549   -230437.25447                  21549569.2024
        50.0004         37.7504
  23350238.2524    1984936.57049   1534363.62446                  23350235.0884
        40.5004         24.5004
  22052752.6424   -5173450.58649  -4014732.78947                  22052750.2434
        46.0004         33.5004
  23708677.8784   -2070543.00049  -1606626.46546                  23708678.3124
        40.5004         24.0004
  20467288.2724     120792.72349     93201.21248                  20467285.7844
        51.2504         44.0004
 04  6 29 21 44 29.9990000  0  5G11G14G20G16G25
  21549433.9314    -297950.35549   -230999.06547                  21549431.9594
        50.2504         38.2504
  23352527.8514    1996966.96949   1543737.93946                  23352524.5724
        41.5004         25.5004
  22045325.3164   -5212479.79749  -4045145.14947                  22045323.2174
        46.5004         34.0004
  23700829.2404   -2111782.66449  -1638761.27246                  23700830.3034
        42.2504         24.2504
  20467653.7344     122711.47349     94696.34048                  20467650.9914
        52.0004         44.7504
 04  6 29 21 44 39.9990000  0  5G11G14G20G16G25
  21549301.9654    -298645.13349   -231540.45947                  21549299.8454
        49.2504         38.0004
  23354812.2214    2008971.44549   1553092.08846                  23354808.8324
        42.2504         25.2504
  22037896.3974   -5251519.34449  -4075565.56747                  22037894.6654
        47.0004         34.5004
  23692977.8594   -2153048.62549  -1670916.52046                  23692977.8154
        41.0004         25.5004
  20468022.6464     124650.28949     96207.10948                  20468019.9344
        52.2504         44.5004
 04  6 29 21 44 49.9990000  0  5G11G14G20G16G25
  21549174.5474    -299314.29349   -232061.89247                  21549172.8564
        50.0004         38.5004
  23357090.4144    2020949.43449   1562425.56947                  23357088.6304
        40.5004         27.0004
  22030465.6804   -5290569.77049  -4105994.45247                  22030463.6794
        46.7504         34.5004
  23685120.2884   -2194341.37549  -1703092.65346                  23685119.3054
        42.5004         25.2504
  20468395.3524     126608.53949     97733.01648                  20468392.3764
        51.0004         44.7504
 04  6 29 21 44 59.9990000  0  5G11G14G20G16G25
  21549052.9504    -299952.82049   -232559.45647                  21549050.8524
        50.5004         38.2504
  23359366.5944    2032906.05149   1571742.44347                  23359363.8194
        40.5004         27.2504
  22023032.9534   -5329625.82849  -4136427.73047                  22023031.4714
        46.0004         34.5004
  23677257.7374   -2235655.71949  -1735285.62447                  23677257.4504
        43.2504         26.0004
  20468772.7484     128591.28149     99278.01048                  20468770.0084
        51.5004         44.5004
 04  6 29 21 45  9.9990000  0  5G11G14G20G16G25
  21548936.0054    -300568.57449   -233039.27247                  21548933.6204
        50.0004         38.5004
  23361635.9294    2044833.45749   1581036.51947                  23361633.8004
        40.0004         27.0004
  22015599.1664   -5368695.21549  -4166871.40647                  22015596.8654
        46.5004         34.0004
  23669390.3984   -2276999.26249  -1767501.34846                  23669390.0184
        44.0004         25.0004
  20469152.8074     130590.73049    100836.02448                  20469150.1314
        51.5004         44.0004
 04  6 29 21 45 19.9990000  0  5G11G14G20G16G25
  21548823.4414    -301158.48849   -233498.95447                  21548821.4544
        49.7504         39.0004
  23363900.9684    2056734.85549   1590310.32347                  23363898.6094
        43.2504         27.5004
  22008161.7164   -5407774.75849  -4197322.97947                  22008160.1734
        46.0004         34.0004
  23661517.5304   -2318368.83249  -1799737.35046                  23661517.5084
        43.0004         23.5004
  20469537.4764     132609.91049    102409.40648                  20469534.6674
        52.2504         43.7504
 04  6 29 21 45 29.9990000  0  5G11G14G20G16G25
  21548715.9324    -301723.62149   -233939.31947                  21548714.2474
        50.2504         38.2504
  23366160.7384    2068609.13349   1599563.00547                  23366158.1784
        41.5004         27.0004
  22000723.0704   -5446865.39549  -4227783.19247                  22000720.8544
        46.0004         32.7504
  23653640.3264   -2359765.25849  -1831994.23447                  23653640.5454
        43.5004         25.7504
  20469925.1284     134647.67249    103997.26348                  20469922.8474
        51.7504         43.5004
 04  6 29 21 45 39.9990000  0  5G11G14G20G16G25
  21548613.6994    -302263.87949   -234360.32347                  21548610.7174
        50.2504         37.7504
  23368413.8964    2080456.50049   1608794.68447                  23368412.9354
        38.7504         27.0004
  21993282.2374   -5485966.84049  -4258251.84747                  21993280.2034
        46.2504         33.5004
  23645757.8764   -2401188.35549  -1864271.98546                  23645757.5684
        44.5004         24.7504
  20470316.4214     136704.07849    105599.65148                  20470314.1924
        51.0004         44.0004
 04  6 29 21 45 49.9990000  0  5G11G14G20G16G25
  21548516.0084    -302778.44149   -234761.28747                  21548513.2664
        50.2504         37.5004
  23370664.0234    2092277.77349   1618006.06247                  23370662.6024
        41.0004         27.2504
  21985839.5004   -5525078.11349  -4288728.15947                  21985837.1424
        46.5004         34.0004
  23637870.5064   -2442637.01649  -1896569.57947                  23637870.6544
        44.7504         27.0004
  20470711.5334     138780.05549    107217.29048                  20470709.2064
        52.0004         43.7504
 04  6 29 21 45 59.9990000  0  5G11G14G20G16G25
  21548422.9184    -303263.68049   -235139.39247                  21548420.9364
        50.0004         37.7504
  23372908.9944    2104076.68849   1627200.02847                  23372908.8314
        40.5004         27.5004
  21978395.7544   -5564195.51249  -4319209.23547                  21978393.6414
        46.5004         33.7504
  23629979.1924   -2484107.54349  -1928884.25147                  23629978.7644
        44.5004         26.5004
  20471110.8534     140879.08649    108852.91148                  20471108.2724
        51.5004         44.0004
 04  6 29 21 46  9.9990000  0  5G11G14G20G16G25
  21548335.4344    -303725.56649   -235499.33147                  21548333.1244
        50.5004         38.0004
  23375148.8554    2115847.29749   1636371.86247                  23375148.9654
        40.0004         27.2504
  21970949.6764   -5603324.90649  -4349699.66447                  21970947.3674
        45.7504         34.7504
  23622082.1484   -2525605.74649  -1961220.50446                  23622081.8614
        43.7504         25.2504
  20471513.4554     142995.23449    110501.84148                  20471510.8294
        52.0004         43.7504
